Terminal Aerodrome Forecast
Issued by NWS Miami, FL

Home | Current Version | Previous Version | Text Only | Print | Product List | Glossary On
Versions: 1 2 3 4 5 6 7 8 9 10 11 12 13 14 15 16 17 18 19 20 21 22 23 24 25 26 27 28 29 30 31 32 33 34 35 36 37 38 39 40 41 42 43 44 45 46 47 48
000
FTUS42 KMFL 162104 AAA
TAFPBI
TAF AMD
KPBI 162104Z 1621/1718 09011KT P6SM VCSH SCT030 BKN050 BKN250
     FM170100 10010KT P6SM VCSH SCT025 BKN060
     FM171400 12012KT P6SM SCT025 SCT060=

USA.gov is the U.S. government's official web portal to all federal, state and local government web resources and services.